Flag for U.S.A. Weather past 2 weeks in Orlando, Florida, U.S.A.

Now
91 °F

Sunny.


Feels Like: 98 °F
Forecast: 75 / 93 °F
Wind: 7 mph from North

Location: Orlando Executive Airport

Current Time: Jul 1, 2015 at 5:43:38 PM

Latest Report: Jul 1, 2015 at 4:53 PM


Visibility: 10 mi

Pressure: 30.09 "Hg

Humidity: 52%

Dew point: 71 °F

Location of OrlandoLocation

Historic Weather in Orlando — Graph

°F

Orlando temperature yesterday

Maximum temperature yesterday: 93 °F (at 4:53 PM)
Minimum temperature yesterday: 75 °F (at 6:53 AM)
Average temperature yesterday: 84 °F

Past Weeks' High & Low Weather Summary

 TemperatureHumidityPressure
High96 °F (Jun 17, 3:53 PM)100% (Jun 20, 3:53 AM)30.18 "Hg (Jun 20, 3:53 AM)
Low0 °F (Jun 25, 7:53 AM)40% (Jun 17, 3:53 PM)29.98 "Hg (Jun 27, 4:53 PM)
Average82 °F75%30.09 "Hg
* Reported Jun 16 3:53 PM — Jul 1 3:53 PM, Orlando, Weather by CustomWeather, © 2015

Note: Actual official high and low records may vary slightly from our data, if they occured in-between our weather recording intervals... More about our weather records

Advertising

Orlando weather history for previous 24 hours

 ConditionsComfort  
Time TempWeatherWind HumidityBarometerVisibility
3:53 PM
Wed, Jul 1
91 °FSunny.7 mph54%30.10 "Hg10 mi
2:53 PM89 °FSunny.12 mph57%30.11 "Hg10 mi
2:02 PM92 °FSunny.12 mph54%30.12 "Hg10 mi
1:53 PM91 °FSunny.14 mph56%30.12 "Hg10 mi
12:53 PM91 °FSunny.8 mph56%30.15 "Hg10 mi
11:53 AM90 °FSunny.12 mph56%30.16 "Hg10 mi
10:53 AM87 °FScattered clouds.9 mph67%30.16 "Hg10 mi
9:53 AM86 °FScattered clouds.7 mph75%30.16 "Hg10 mi
8:53 AM83 °FSunny.8 mph79%30.16 "Hg10 mi
7:53 AM80 °FSunny.8 mph87%30.16 "Hg10 mi
6:53 AM78 °FClear.6 mph87%30.15 "Hg10 mi
5:53 AM77 °FClear.7 mph88%30.13 "Hg10 mi
4:53 AM78 °FClear.6 mph84%30.13 "Hg10 mi
3:53 AM78 °FClear.6 mph84%30.13 "Hg10 mi
2:53 AM80 °FClear.9 mph81%30.11 "Hg10 mi
1:53 AM81 °FClear.6 mph82%30.11 "Hg10 mi
11:53 PM
Tue, Jun 30
83 °FClear.5 mph77%30.12 "Hg10 mi
10:53 PM84 °FClear.6 mph72%30.14 "Hg10 mi
9:53 PM86 °FClear.13 mph65%30.14 "Hg10 mi
8:53 PM87 °FSunny.8 mph55%30.08 "Hg10 mi
7:53 PM90 °FSunny.13 mph48%30.08 "Hg10 mi
6:53 PM91 °FSunny.13 mph45%30.06 "Hg10 mi
5:53 PM92 °FSunny.12 mph47%30.07 "Hg10 mi
Weather by CustomWeather, © 2015

See weather overviewHow to use our weather pages